Weather History for Tampa, FL

Change the Weather History Date:

Tuesday, November 20, 2012

  Actual Average Record
Temperature  
Mean Temperature 68 °F 68 °F  
Max Temperature 76 °F 77 °F 86 °F (2011)
Min Temperature 59 °F 59 °F 35 °F (1914)
Degree Days  
Heating Degree Days 0 2  
Month to date heating degree days 15 20  
Since 1 July heating degree days 21 24  
Cooling Degree Days 3 5  
Month to date cooling degree days 68 123  
Year to date cooling degree days 3863 3489  
Growing Degree Days 17 (Base 50)    
Moisture  
Dew Point 55 °F    
Average Humidity 70    
Maximum Humidity 90    
Minimum Humidity 49    
Precipitation  
Precipitation 0.00 in 0.04 in 1.67 in (1952)
Month to date precipitation 0.16 1.00  
Year to date precipitation 53.79 43.28  
Sea Level Pressure  
Sea Level Pressure 30.06 in    
Wind  
Wind Speed 7 mph (NNW)    
Max Wind Speed 15 mph    
Max Gust Speed 23 mph    
Visibility 10 miles    
Events      
T = Trace of Precipitation, MM = Missing Value Source: NWS Daily Summary

Daily Weather History Graph

Daily Weather History Graph

Search for Another Location

Airport:

Trip Planner

Search our weather history database for the weather conditions in past years. The results will help you decide how hot, cold, wet, or windy it might be!

Date:

Astronomy

Nov. 20, 2012 Rise Set
Actual Time 6:55 AM EST 5:35 PM EST
Civil Twilight 6:30 AM EST 6:00 PM EST
Nautical Twilight 6:02 AM EST 6:29 PM EST
Astronomical Twilight 5:34 AM EST 6:57 PM EST
Moon 12:47 PM EST No Moon Set
Length of Visible Light 11h 29m
Length of Day
10h 39m
Waxing Crescent, 51% of the Moon is Illuminated
Nov 20
Waxing Crescent
Nov 28
Full
Dec 6
Last Quarter
Dec 13
New
Dec 20
First Quarter

Hourly Weather History & Observations

Time (EST) Temp. Dew Point Humidity Pressure Visibility Wind Dir Wind Speed Gust Speed Precip Events Conditions
12:53 AM 59.0 °F 52.0 °F 78% 30.10 in 10.0 mi NNE 6.9 mph - N/A   Overcast
1:53 AM 59.0 °F 52.0 °F 78% 30.09 in 10.0 mi North 5.8 mph - N/A   Overcast
2:53 AM 59.0 °F 52.0 °F 78% 30.07 in 10.0 mi NNW 5.8 mph - N/A   Overcast
3:53 AM 59.0 °F 52.0 °F 78% 30.07 in 10.0 mi NNW 4.6 mph - N/A   Overcast
4:53 AM 59.0 °F 53.1 °F 81% 30.07 in 10.0 mi North 6.9 mph - N/A   Overcast
5:53 AM 60.1 °F 53.1 °F 78% 30.08 in 10.0 mi North 9.2 mph - N/A   Overcast
6:53 AM 60.1 °F 53.1 °F 78% 30.09 in 10.0 mi North 8.1 mph - N/A   Mostly Cloudy
7:53 AM 61.0 °F 54.0 °F 78% 30.11 in 10.0 mi NNW 10.4 mph - N/A   Overcast
8:53 AM 63.0 °F 54.0 °F 72% 30.10 in 10.0 mi North 10.4 mph - N/A   Mostly Cloudy
9:53 AM 66.9 °F 54.0 °F 63% 30.11 in 10.0 mi North 9.2 mph - N/A   Partly Cloudy
10:53 AM 68.0 °F 54.0 °F 61% 30.11 in 10.0 mi NNW 3.5 mph - N/A   Partly Cloudy
11:53 AM 71.1 °F 55.0 °F 57% 30.08 in 10.0 mi North 9.2 mph - N/A   Partly Cloudy
12:53 PM 72.0 °F 55.0 °F 55% 30.04 in 10.0 mi NW 8.1 mph - N/A   Partly Cloudy
2:53 PM 73.9 °F 57.0 °F 55% 30.00 in 10.0 mi NNW 9.2 mph 17.3 mph N/A   Partly Cloudy
3:53 PM 73.0 °F 57.0 °F 57% 29.99 in 10.0 mi NNW 11.5 mph - N/A   Partly Cloudy
4:53 PM 69.1 °F 55.9 °F 63% 30.00 in 10.0 mi NW 13.8 mph - N/A   Partly Cloudy
5:53 PM 64.9 °F 55.9 °F 73% 30.02 in 10.0 mi NNW 9.2 mph - N/A   Partly Cloudy
6:53 PM 63.0 °F 57.0 °F 81% 30.03 in 10.0 mi NNW 6.9 mph - N/A   Clear
7:53 PM 63.0 °F 57.9 °F 84% 30.05 in 10.0 mi NNW 8.1 mph - N/A   Clear
8:53 PM 62.1 °F 57.9 °F 86% 30.06 in 10.0 mi North 4.6 mph - N/A   Clear
9:53 PM 62.1 °F 57.9 °F 86% 30.07 in 10.0 mi North 5.8 mph - N/A   Clear
10:53 PM 61.0 °F 57.9 °F 90% 30.07 in 10.0 mi North 3.5 mph - N/A   Clear
11:53 PM 63.0 °F 57.0 °F 81% 30.06 in 10.0 mi Calm Calm - N/A   Clear